MST,Max TemperatureF,Mean TemperatureF,Min TemperatureF,Max Dew PointF,MeanDew PointF,Min DewpointF,Max Humidity, Mean Humidity, Min Humidity, Max Sea Level PressureIn, Mean Sea Level PressureIn, Min Sea Level PressureIn, Max VisibilityMiles, Mean VisibilityMiles, Min VisibilityMiles, Max Wind SpeedMPH, Mean Wind SpeedMPH, Max Gust SpeedMPH,PrecipitationIn, CloudCover, Events, WindDirDegrees
2010-11-1,61,50,38,38,33,27,82,56,29,30.47,30.36,30.21,10,10,10,16,5,20,0.00,2,,350
2010-11-2,64,50,36,36,32,29,82,55,28,30.56,30.46,30.36,10,10,10,15,5,17,0.00,0,,129
2010-11-3,69,53,37,38,35,32,82,56,30,30.51,30.40,30.30,10,10,10,12,4,15,0.00,0,,110
2010-11-4,66,53,39,37,35,33,79,55,31,30.40,30.28,30.18,10,10,10,14,5,15,0.00,0,,119
2010-11-5,66,51,36,36,33,31,76,53,30,30.26,30.17,30.08,10,10,10,12,4,14,0.00,0,,105
2010-11-6,68,54,39,37,34,32,76,52,27,30.22,30.12,30.02,10,10,10,13,5,15,0.00,0,,119
2010-11-7,65,52,39,39,32,27,76,52,27,30.12,30.01,29.89,10,10,10,15,7,17,0.00,1,,70
2010-11-8,65,54,42,40,29,24,66,45,23,29.86,29.70,29.57,10,10,7,26,14,39,0.02,4,Rain,152
2010-11-9,44,37,30,37,33,29,92,77,62,29.95,29.83,29.64,10,10,5,20,8,24,0.08,7,Rain-Snow,302
2010-11-10,46,37,27,34,29,24,96,69,42,30.01,29.95,29.86,10,10,8,12,7,15,T,6,Snow,112
2010-11-11,47,38,29,32,27,19,100,69,37,30.43,30.18,29.99,10,8,0,14,6,20,0.00,5,Fog,305
2010-11-12,45,34,23,21,18,15,75,53,31,30.54,30.45,30.40,10,10,10,8,2,10,0.00,1,,131
2010-11-13,47,38,28,23,21,18,75,53,31,30.44,30.30,30.17,10,10,10,14,6,16,0.00,4,,94
2010-11-14,45,36,26,25,22,19,75,58,40,30.17,30.05,29.87,10,10,10,12,5,14,0.00,4,,85
2010-11-15,47,40,32,36,32,25,100,82,64,30.10,29.94,29.83,10,5,0,14,3,16,0.09,6,Fog-Snow,26
2010-11-16,50,41,32,34,29,23,92,69,46,30.09,29.90,29.68,10,10,10,40,8,48,0.02,4,Rain,19
2010-11-17,49,39,28,27,25,20,78,56,34,30.37,30.28,30.11,10,10,10,14,3,16,0.00,1,,97
2010-11-18,48,38,27,23,23,21,72,54,36,30.35,30.23,30.07,10,10,10,21,9,21,0.00,0,,107
2010-11-19,53,40,27,27,25,23,81,62,43,30.06,29.96,29.86,10,10,10,8,4,,0.00,0,,338
2010-11-20,61,47,33,26,20,14,75,46,16,29.83,29.69,29.57,10,10,10,26,11,35,0.00,3,,157
2010-11-21,55,44,32,37,32,23,92,64,36,29.76,29.62,29.42,10,8,1,40,13,51,0.15,6,Rain-Snow,241
2010-11-22,42,35,28,25,21,18,75,57,38,30.07,29.94,29.76,10,10,10,28,7,32,0.00,3,,117
2010-11-23,48,37,25,24,17,12,69,49,28,30.03,29.80,29.53,10,10,10,22,9,28,0.00,2,,133
2010-11-24,41,26,11,30,14,-4,100,63,25,30.14,29.80,29.50,10,8,0,26,9,33,0.06,4,Fog-Snow,286
2010-11-25,28,18,8,8,0,-7,73,49,25,30.51,30.37,30.02,10,10,10,13,3,15,0.00,0,,101
2010-11-26,35,23,10,11,6,1,73,48,23,30.63,30.49,30.37,10,10,10,10,3,12,0.00,0,,89
2010-11-27,38,26,13,19,13,7,80,59,37,30.35,30.06,29.71,10,10,10,12,2,13,0.00,1,,56
2010-11-28,42,33,23,29,24,16,92,66,39,29.70,29.60,29.49,10,7,2,24,8,29,0.03,7,Snow,6
2010-11-29,37,31,24,23,15,11,85,60,35,30.41,30.11,29.75,10,10,10,21,9,28,T,6,,3
2010-11-30,34,25,15,17,12,10,80,59,38,30.59,30.52,30.37,10,10,10,12,3,13,0.00,3,,115